User: anonymous   Login
Location: Unspecified
(38.7273°N, 77.0677°W)
Time: 12:35:54
(UTC-04:00)
Language:

UNISAT 6 - Orbit

View from above orbital plane
View from above orbital plane
View from above satellite
View from above satellite

Ground track
Ground track

The orbit data is extracted from the following two-line orbital elements,

1 40012U 14033C   21267.72329428  .00000348  00000-0  58536-4 0  9999
2 40012  97.6703 104.9025 0056808 300.0464  59.5118 14.74379597390823
Epoch (UTC): 24 September 2021 17:21:32
Eccentricity: 0.0056808
inclination: 97.6703°
perigee height: 607 km
apogee height: 687 km
right ascension of ascending node: 104.9025°
argument of perigee: 300.0464°
revolutions per day: 14.74379597
mean anomaly at epoch: 59.5118°
orbit number at epoch: 39082

The dashed part of the orbit path shows where the satellite is in the earth's shadow,  

DLR